Date,TemperatureHighF,TemperatureAvgF,TemperatureLowF,DewpointHighF,DewpointAvgF,DewpointLowF,HumidityHigh,HumidityAvg,HumidityLow,PressureMaxIn,PressureMinIn,WindSpeedMaxMPH,WindSpeedAvgMPH,GustSpeedMaxMPH,PrecipitationSumIn
2013-2-1,24,6,-6,18,0,-11,83,75,67,30.34,29.98,9,4,16,0.00
2013-2-2,33,20,13,29,15,8,95,82,67,30.15,29.93,13,4,25,0.00
2013-2-3,33,25,15,30,17,-100,90,75,63,30.13,29.75,16,-9,27,0.03
2013-2-4,26,22,18,22,18,15,89,84,76,30.00,29.73,15,4,22,0.01
2013-2-5,40,30,22,34,25,-100,92,84,77,30.08,29.74,11,-11,19,0.00
2013-2-6,41,32,22,36,29,20,92,87,80,30.09,29.88,10,3,20,0.00
2013-2-7,37,31,28,33,27,-100,96,91,85,30.17,29.86,11,-11,22,0.00
2013-2-8,29,27,24,25,24,22,90,88,84,30.33,30.17,11,5,22,0.00
2013-2-9,34,30,27,31,28,24,92,90,88,30.22,29.82,13,8,23,0.03
2013-2-10,43,36,31,42,34,28,98,93,79,29.82,29.23,18,8,27,0.19
2013-2-11,31,29,27,28,22,-100,89,80,78,30.09,29.51,19,-3,36,0.01
2013-2-12,45,32,22,31,26,19,92,78,53,30.11,29.83,10,3,18,0.00
2013-2-13,49,36,25,37,30,23,92,79,58,29.83,29.63,7,3,18,0.00
2013-2-14,39,34,23,33,27,-100,87,80,73,30.16,29.66,14,8,25,0.00
2013-2-15,28,21,15,18,14,8,86,74,64,30.29,30.16,10,5,19,0.00
2013-2-16,34,22,11,22,16,8,90,77,55,30.27,30.06,6,2,10,0.00
2013-2-17,43,31,19,30,23,16,88,75,55,30.06,29.62,13,7,27,0.00
2013-2-18,41,30,15,35,24,9,92,79,70,29.88,29.53,19,9,32,0.00
2013-2-19,20,13,4,9,5,-2,82,70,57,30.34,29.88,20,11,32,0.00
2013-2-20,24,12,0,14,4,-5,81,71,57,30.41,30.26,12,5,16,0.00
2013-2-21,26,21,16,22,16,12,93,81,67,30.29,29.83,21,13,31,0.00
2013-2-22,27,24,21,24,21,17,94,89,82,29.94,29.75,14,6,23,0.03
2013-2-23,32,20,10,23,15,7,90,82,67,29.93,29.86,7,2,13,0.01
2013-2-24,39,24,8,30,20,5,90,83,67,30.04,29.90,6,2,9,0.00
2013-2-25,38,32,27,31,28,25,93,86,73,30.06,29.89,9,3,11,0.00
2013-2-26,31,30,28,30,28,25,96,92,84,29.89,29.70,18,11,25,0.03
2013-2-27,30,28,24,28,25,21,94,91,85,29.95,29.75,10,5,22,0.01
2013-2-28,32,26,20,27,23,17,90,87,79,30.14,29.95,9,4,16,0.01